Dewpoint
-6 -5 -4 -5 -5 -5 -5 -5 -5 -6 -7 -7 -7 -7 -8 -9 -12 -15 -18 -20 -20 -19 -18 -15 -14 -12 -11 -12 -10 -11 -10 -3 -1 -9 -4 -4 -6 -5 -1 2 2 1 1
-5 -5 -5 -4 -4 -5 -4 -4 -3 -4 -4 -6 -6 -6 -6 -7 -8 -10 -13 -17 -19 -20 -19 -18 -17 -15 -15 -14 -16 -17 -15 -12 -8 -10 -8 -4 -2 -0 0 -0 1 1 2
-8 -8 -7 -6 -5 -4 -4 -4 -4 -4 -5 -5 -6 -7 -6 -6 -6 -6 -8 -11 -15 -17 -18 -19 -19 -18 -18 -17 -17 -16 -11 -5 -2 -1 -1 -1 -1 -1 0 1 1 2 2
-8 -7 -7 -7 -7 -6 -6 -7 -7 -6 -6 -6 -6 -7 -7 -7 -6 -5 -5 -7 -10 -13 -16 -17 -18 -19 -19 -19 -18 -15 -11 -5 -2 -2 -2 -2 -0 -1 -0 0 1 1 1
-14 -11 -9 -8 -7 -7 -7 -7 -6 -5 -5 -4 -3 -4 -5 -6 -7 -6 -4 -4 -6 -8 -10 -13 -16 -18 -19 -19 -18 -16 -9 -3 -2 -2 -2 -2 -1 -0 -0 -0 1 1 1
-22 -19 -14 -14 -13 -11 -9 -8 -8 -8 -7 -6 -5 -4 -3 -4 -5 -7 -5 -4 -4 -5 -6 -8 -11 -14 -17 -18 -18 -16 -4 -2 -3 -2 -3 -2 -2 -2 -1 -0 -0 -0 0
-21 -19 -19 -19 -19 -19 -19 -18 -15 -12 -10 -9 -8 -7 -7 -6 -5 -5 -6 -6 -5 -4 -4 -5 -6 -9 -13 -16 -17 -16 -14 -11 -8 -4 -3 -4 -2 -2 -2 -1 -1 -1 -1
-19 -19 -22 -23 -23 -22 -22 -21 -21 -19 -19 -18 -16 -13 -12 -10 -8 -7 -6 -5 -6 -6 -4 -3 -4 -5 -8 -13 -16 -15 -15 -15 -11 -11 -12 -9 -7 -12 -13 -9 -3 -4 -4
-22 -21 -22 -24 -26 -25 -24 -24 -23 -23 -22 -22 -21 -20 -20 -19 -13 -10 -8 -7 -6 -5 -5 -5 -4 -4 -5 -8 -12 -14 -13 -12 -11 -11 -13 -15 -15 -14 -14 -13 -11 -7 -8
-20 -19 -22 -24 -24 -25 -24 -24 -24 -24 -25 -25 -27 -25 -24 -23 -19 -17 -11 -7 -7 -7 -6 -6 -6 -4 -3 -5 -8 -11 -11 -9 -10 -10 -11 -12 -13 -13 -13 -14 -13 -11 -7
-18 -20 -22 -23 -24 -24 -25 -24 -25 -25 -26 -26 -27 -28 -27 -27 -27 -24 -18 -13 -8 -6 -7 -7 -6 -6 -5 -3 -4 -7 -9 -8 -10 -12 -13 -11 -12 -13 -14 -14 -13 -12 -12
-15 -15 -20 -22 -23 -23 -23 -23 -23 -22 -23 -24 -26 -28 -28 -29 -29 -28 -27 -22 -12 -6 -5 -5 -5 -5 -5 -4 -4 -4 -8 -8 -9 -11 -12 -12 -15 -14 -14 -14 -14 -13 -13
-20 -22 -24 -23 -23 -21 -21 -22 -21 -21 -21 -22 -24 -25 -27 -28 -29 -28 -27 -26 -25 -18 -8 -4 -3 -4 -4 -5 -4 -4 -6 -8 -8 -9 -10 -12 -13 -13 -15 -14 -14 -13 -13
-5 -10 -19 -23 -24 -23 -22 -21 -19 -20 -20 -21 -21 -22 -24 -25 -26 -26 -26 -25 -24 -23 -19 -9 -5 -3 -3 -4 -5 -4 -5 -6 -7 -8 -10 -11 -12 -13 -14 -14 -14 -13 -12
-9 -6 -12 -16 -18 -20 -20 -20 -20 -20 -19 -19 -19 -18 -18 -21 -23 -22 -23 -22 -20 -17 -11 -4 -4 -4 -3 -3 -4 -4 -4 -5 -6 -6 -8 -10 -11 -12 -14 -14 -13 -12 -11
-11 -12 -12 -13 -13 -13 -14 -15 -17 -18 -18 -18 -18 -17 -18 -19 -20 -21 -21 -19 -18 -11 -6 -5 -5 -4 -4 -4 -3 -3 -4 -5 -5 -6 -6 -9 -10 -12 -14 -13 -12 -11 -11
-15 -15 -14 -14 -14 -13 -13 -14 -15 -16 -17 -20 -19 -18 -17 -17 -18 -20 -20 -18 -18 -7 -5 -6 -6 -5 -5 -5 -4 -4 -4 -4 -5 -5 -5 -9 -10 -12 -13 -13 -12 -11 -11
-18 -18 -16 -16 -13 -13 -12 -12 -12 -12 -13 -17 -19 -16 -16 -17 -19 -18 -17 -13 -11 -10 -5 -5 -5 -5 -5 -4 -4 -4 -4 -5 -5 -5 -5 -7 -8 -11 -11 -12 -11 -11 -11
-17 -17 -16 -15 -14 -14 -13 -12 -11 -10 -11 -11 -13 -16 -19 -17 -16 -16 -13 -10 -10 -7 -6 -6 -6 -5 -5 -5 -5 -5 -4 -4 -5 -5 -5 -5 -8 -8 -7 -11 -11 -11 -10
-15 -14 -13 -12 -12 -11 -10 -9 -9 -10 -10 -10 -12 -14 -13 -12 -15 -15 -12 -8 -8 -7 -7 -7 -6 -6 -5 -6 -5 -5 -5 -5 -5 -5 -5 -6 -8 -7 -7 -10 -10 -9 -10
-11 -12 -11 -10 -10 -9 -9 -9 -9 -9 -9 -10 -12 -13 -11 -7 -7 -7 -7 -7 -7 -7 -7 -7 -6 -6 -6 -6 -5 -5 -5 -5 -5 -5 -5 -6 -6 -7 -8 -8 -10 -11 -11
-10 -10 -10 -10 -10 -9 -9 -9 -9 -9 -9 -8 -11 -12 -12 -8 -7 -8 -8 -7 -7 -7 -7 -7 -6 -6 -5 -6 -6 -6 -6 -6 -5 -5 -5 -6 -7 -7 -8 -10 -11 -12 -13
-11 -11 -11 -11 -10 -10 -9 -9 -8 -8 -8 -9 -8 -7 -7 -7 -7 -7 -7 -7 -7 -7 -7 -7 -6 -6 -6 -5 -5 -6 -6 -6 -5 -5 -6 -6 -7 -8 -9 -10 -12 -12 -11
-10 -10 -10 -10 -10 -9 -9 -9 -9 -7 -7 -7 -7 -7 -7 -7 -7 -7 -7 -7 -7 -7 -7 -6 -6 -6 -6 -6 -5 -5 -6 -6 -6 -6 -6 -6 -7 -8 -9 -10 -9 -9 -10
-9 -9 -9 -9 -9 -9 -8 -7 -7 -7 -7 -7 -8 -8 -8 -8 -8 -8 -7 -7 -7 -7 -6 -7 -6 -6 -6 -6 -6 -6 -6 -6 -6 -6 -7 -7 -8 -9 -9 -9 -10 -11 -11
-10 -8 -8 -7 -7 -7 -7 -7 -7 -7 -7 -8 -8 -8 -8 -8 -8 -8 -8 -7 -8 -7 -7 -7 -6 -6 -6 -6 -6 -6 -6 -6 -6 -7 -7 -8 -8 -9 -9 -10 -10 -10 -11
Wind_Speed
20 18 17 16 16 16 17 16 15 15 15 15 16 15 15 15 16 16 16 16 16 16 15 16 16 16 18 17 17 21 24 25 30 35 32 31 32 26 22 20 18 16 16
21 19 18 16 16 15 15 15 16 16 16 16 17 17 17 17 16 17 17 17 17 17 17 17 17 17 19 18 20 20 20 20 22 30 28 26 24 22 20 23 21 15 15
19 19 16 15 15 15 15 15 16 17 17 17 17 18 18 18 19 18 19 19 19 18 18 18 17 18 19 19 19 20 18 17 17 20 27 23 23 21 21 19 17 15 17
18 17 16 15 14 14 15 16 16 16 16 17 17 18 18 19 19 19 20 20 20 20 19 20 20 20 20 19 20 19 19 16 16 19 23 26 22 19 16 17 19 20 24
18 17 16 14 14 14 14 15 15 16 17 17 18 18 19 20 20 20 21 21 21 21 21 21 21 21 21 21 21 19 17 17 20 21 23 23 22 19 18 19 21 22 21
18 17 17 16 15 14 14 14 15 15 17 18 19 20 21 20 20 20 22 23 23 23 23 22 21 22 21 22 21 21 17 21 21 21 22 22 23 24 17 21 22 25 25
18 17 17 17 16 15 15 16 16 17 18 18 18 19 21 21 20 21 22 25 26 26 25 24 24 23 22 22 22 22 23 22 20 22 25 24 23 24 25 27 25 24 27
17 18 19 19 19 19 18 18 17 17 18 19 19 19 21 21 20 21 21 25 27 27 27 26 26 26 24 24 25 24 24 23 21 21 21 22 24 24 22 21 25 28 28
18 19 19 20 20 19 19 20 19 20 19 19 20 21 22 22 22 22 23 25 27 29 28 27 28 28 27 25 27 27 26 23 20 19 20 21 21 21 21 23 24 24 27
21 21 21 21 21 21 20 19 19 19 20 21 20 21 21 23 22 22 22 24 27 29 30 30 29 30 28 28 29 28 29 26 22 22 21 21 20 20 19 21 21 23 21
21 22 23 22 23 22 22 21 21 21 22 22 23 22 22 22 22 22 22 25 26 28 30 32 33 30 28 29 31 31 30 26 26 25 24 21 19 20 19 20 20 21 22
24 25 26 25 25 24 23 22 22 22 23 23 25 26 25 25 26 26 26 26 26 28 32 33 33 31 30 28 30 32 31 28 28 28 26 23 21 20 20 20 21 21 22
23 23 25 26 25 24 25 26 25 23 24 26 26 29 31 31 31 31 32 32 31 31 30 31 31 32 34 31 30 32 31 30 29 28 28 25 21 21 21 20 20 21 21
28 27 28 27 27 26 27 27 28 26 25 26 28 29 30 32 31 32 34 36 36 37 38 37 33 31 32 35 33 31 32 30 29 29 29 25 23 22 21 20 20 18 21
29 30 31 28 29 30 31 31 31 31 27 28 28 29 31 34 34 34 34 36 36 35 33 35 38 37 33 34 35 34 33 32 32 30 29 26 24 22 21 19 19 18 19
31 32 33 33 34 35 35 36 34 33 30 30 30 29 32 33 35 35 34 34 34 31 32 35 35 37 39 38 37 35 34 34 35 33 30 27 25 22 20 19 19 19 19
32 32 33 34 34 35 35 36 38 38 36 37 35 33 33 35 36 35 34 33 34 30 32 35 36 36 38 39 39 38 35 34 29 32 28 27 23 22 21 20 18 18 17
32 32 32 34 34 35 35 37 38 40 40 39 35 34 34 35 35 34 34 34 37 33 27 29 33 35 33 35 37 39 37 31 29 29 28 25 22 21 20 19 17 17 15
34 34 34 35 37 38 38 38 38 37 37 36 35 32 32 36 36 37 35 31 32 32 31 32 33 34 32 32 34 35 35 32 28 27 27 23 20 22 20 18 16 15 14
34 34 34 36 38 38 38 37 37 35 33 33 34 36 38 39 40 39 36 35 33 34 34 33 35 33 33 31 31 32 34 32 26 24 26 21 20 20 18 17 16 15 15
33 35 34 34 35 36 35 35 33 31 31 33 36 38 39 27 33 35 37 38 35 34 33 34 35 34 30 28 29 28 29 30 26 25 25 20 20 19 16 15 14 13 12
31 32 32 32 33 34 34 33 31 31 33 35 39 41 39 32 34 36 38 39 37 36 34 33 33 33 31 27 27 26 24 24 23 22 23 20 18 17 16 14 13 11 10
30 30 30 30 31 31 31 30 31 33 36 38 39 38 38 38 38 36 37 37 35 36 33 32 31 32 28 26 24 22 21 20 18 19 20 19 19 18 16 14 12 11 8
30 31 31 32 33 33 33 34 35 34 31 32 32 36 37 37 38 38 38 36 35 34 35 30 29 27 24 22 22 19 17 15 15 16 17 18 18 17 17 15 13 10 8
31 32 32 33 35 35 36 35 33 32 32 34 36 37 38 38 41 39 36 36 35 35 26 33 24 23 20 20 19 16 14 14 15 16 16 16 17 17 16 13 12 10 8
31 32 33 34 34 33 31 31 31 33 36 36 36 37 39 40 37 38 39 35 35 29 29 23 23 19 18 17 16 13 13 14 15 14 15 16 17 18 15 13 11 9 7
Wind_Direction
320 312 309 308 307 303 302 301 301 302 305 307 304 304 305 306 305 305 304 302 300 299 297 294 293 290 286 286 282 280 277 270 270 284 286 289 297 306 306 300 285 277 277
333 327 313 308 301 300 308 303 300 303 304 305 305 303 304 304 302 302 302 301 298 297 296 292 292 288 286 286 287 285 281 277 273 283 293 303 308 311 307 298 301 287 285
342 341 334 322 312 304 305 305 301 301 303 305 304 304 304 304 303 303 303 301 299 297 295 292 292 288 289 289 286 285 283 281 285 286 298 304 308 316 318 317 306 296 286
344 341 342 340 333 322 314 309 307 304 303 302 303 303 303 301 301 300 298 298 297 297 295 292 290 290 290 290 288 285 284 279 279 280 281 291 301 309 307 308 302 293 295
342 344 347 344 337 331 324 319 315 311 308 307 307 305 304 303 303 297 294 295 295 295 293 292 292 292 293 293 290 286 284 278 276 284 288 294 302 311 311 312 312 315 306
332 332 332 333 335 332 328 322 317 313 310 307 306 307 307 308 308 302 296 293 292 293 295 295 293 290 290 289 289 285 273 272 278 276 283 284 292 302 303 302 302 304 308
322 327 327 328 330 329 329 325 319 317 317 316 314 311 309 309 308 304 299 294 292 292 293 294 293 290 288 286 284 284 280 280 275 276 275 281 286 287 291 296 298 296 296
314 317 319 321 325 326 326 325 323 322 321 319 318 317 313 313 310 304 300 294 293 291 290 290 288 288 286 284 283 282 281 282 278 279 279 282 281 290 292 290 288 295 293
315 320 323 323 325 326 327 328 328 326 326 325 326 324 322 323 322 317 307 300 296 293 292 290 287 286 287 283 280 280 282 280 281 278 278 281 283 288 292 292 291 292 298
312 317 321 321 322 322 322 322 324 325 325 325 326 328 329 328 328 324 318 312 304 302 299 294 288 286 285 282 279 277 277 280 281 279 280 282 282 285 288 288 288 290 294
311 315 315 316 316 316 316 317 320 322 323 325 326 329 329 328 329 327 323 315 311 305 299 298 298 293 285 278 277 275 275 279 277 279 280 280 282 284 286 287 286 286 287
312 309 307 310 312 312 311 313 314 317 318 323 325 325 327 328 331 330 326 318 311 306 304 302 300 296 291 280 273 272 271 271 273 277 276 278 284 281 283 285 286 284 285
310 308 307 308 311 312 310 309 309 311 315 320 323 326 328 330 330 329 326 323 316 305 300 298 297 294 293 286 276 272 270 267 268 271 275 278 280 280 283 284 283 285 285
302 310 310 309 310 309 306 305 303 307 311 313 317 318 321 322 326 324 323 320 318 316 312 307 298 291 288 289 283 270 266 266 266 269 271 275 274 277 281 284 282 280 279
310 301 304 307 305 305 305 305 302 302 302 303 305 309 313 316 323 322 320 316 314 314 312 304 303 298 289 283 280 279 273 266 263 267 270 270 269 272 276 278 277 275 274
311 311 308 306 302 300 300 300 298 297 296 293 294 296 301 307 313 314 311 308 307 304 303 300 299 294 289 285 282 279 276 270 265 264 265 265 264 267 271 271 269 268 270
309 308 308 308 309 309 307 304 303 302 299 296 292 292 295 300 305 307 305 304 303 299 287 288 289 294 291 289 287 284 278 274 269 259 253 255 257 260 265 267 265 262 267
303 303 303 303 303 302 300 298 298 296 296 293 291 291 293 298 304 305 306 305 301 302 287 287 291 289 295 291 289 287 284 278 270 258 246 246 248 254 258 259 258 259 263
307 304 304 303 302 301 299 298 297 297 296 297 298 296 298 303 306 305 303 300 301 294 293 292 297 293 291 291 287 287 286 282 275 255 244 242 241 249 253 252 249 253 261
302 303 303 301 301 300 301 301 301 300 300 300 301 303 306 307 304 302 302 305 301 294 294 296 297 299 289 295 289 285 284 280 271 248 240 236 239 247 250 245 246 252 257
303 302 302 301 301 303 302 302 302 299 298 300 300 302 306 297 294 293 294 297 299 298 298 297 295 302 300 297 291 285 282 277 269 250 239 234 237 240 241 236 238 246 247
299 301 302 303 304 304 304 302 300 300 301 302 302 304 308 301 294 294 296 297 297 299 299 297 297 297 298 294 288 282 279 274 262 244 235 231 232 232 227 226 229 232 237
300 302 303 304 305 306 304 303 301 300 300 301 303 304 304 300 299 297 296 299 302 303 297 298 295 297 293 292 290 277 272 270 261 244 235 229 228 223 215 215 214 217 221
297 299 301 302 302 302 302 301 300 299 295 293 293 295 296 297 295 295 300 306 308 305 303 297 294 290 291 289 288 276 265 253 244 234 225 224 220 211 202 203 207 212 216
295 297 300 301 301 301 302 302 300 300 298 297 299 296 296 298 297 303 307 307 307 306 291 298 288 285 283 288 283 267 251 235 228 221 216 212 207 201 195 191 199 207 217
301 302 302 300 300 299 296 294 294 297 298 299 297 297 298 304 308 310 309 299 298 293 289 289 286 284 281 279 272 251 229 221 213 212 202 197 190 185 183 186 191 195 207
Height
1478 1475 1473 1471 1469 1468 1467 1466 1465 1463 1461 1459 1457 1456 1454 1453 1451 1449 1447 1446 1444 1443 1442 1440 1440 1439 1438 1438 1438 1436 1435 1435 1431 1423 1424 1423 1421 1418 1417 1416 1415 1414 1415
1475 1472 1469 1467 1465 1464 1463 1462 1461 1460 1458 1457 1455 1453 1451 1449 1447 1445 1444 1442 1440 1438 1437 1435 1434 1434 1433 1432 1431 1429 1428 1427 1425 1419 1418 1417 1415 1414 1412 1410 1409 1408 1409
1474 1470 1467 1465 1463 1461 1459 1458 1456 1455 1454 1452 1450 1449 1447 1446 1444 1442 1440 1438 1436 1434 1433 1431 1430 1429 1427 1427 1425 1423 1423 1421 1420 1418 1413 1414 1411 1410 1407 1405 1404 1403 1403
1473 1470 1467 1464 1461 1459 1457 1455 1453 1451 1449 1448 1446 1444 1442 1440 1438 1437 1435 1433 1432 1430 1429 1427 1426 1424 1422 1421 1420 1418 1417 1416 1415 1414 1410 1407 1406 1405 1404 1401 1398 1398 1397
1472 1468 1464 1461 1459 1457 1455 1453 1451 1449 1447 1445 1443 1441 1438 1436 1434 1431 1429 1428 1426 1425 1424 1422 1421 1420 1418 1416 1414 1413 1412 1411 1410 1408 1406 1403 1401 1399 1398 1396 1393 1391 1390
1470 1466 1463 1460 1457 1454 1452 1449 1447 1445 1443 1441 1439 1437 1435 1432 1430 1428 1425 1422 1421 1419 1418 1418 1416 1414 1413 1411 1409 1408 1407 1405 1404 1403 1400 1399 1397 1395 1393 1391 1389 1387 1384
1468 1465 1461 1457 1454 1451 1449 1446 1444 1442 1439 1437 1435 1432 1429 1427 1425 1422 1420 1416 1414 1413 1412 1411 1409 1409 1407 1406 1404 1402 1401 1399 1397 1396 1394 1393 1391 1390 1388 1385 1384 1382 1380
1465 1462 1459 1455 1452 1448 1445 1443 1440 1438 1435 1432 1430 1428 1425 1422 1419 1416 1414 1411 1408 1406 1405 1404 1402 1401 1401 1400 1398 1396 1395 1393 1392 1390 1388 1386 1385 1383 1382 1379 1377 1375 1373
1461 1459 1456 1452 1449 1446 1443 1440 1437 1434 1431 1428 1426 1423 1419 1417 1413 1410 1407 1404 1402 1399 1399 1397 1395 1393 1393 1393 1391 1389 1388 1387 1387 1385 1383 1381 1379 1377 1376 1374 1371 1369 1365
1458 1455 1452 1449 1446 1443 1440 1436 1434 1430 1427 1424 1421 1419 1416 1412 1409 1405 1401 1398 1396 1394 1391 1389 1389 1387 1386 1385 1382 1382 1380 1380 1380 1379 1377 1375 1374 1372 1370 1369 1367 1364 1362
1453 1451 1448 1446 1442 1439 1435 1432 1429 1426 1423 1419 1416 1413 1410 1407 1404 1400 1397 1392 1388 1385 1383 1381 1379 1379 1378 1376 1373 1372 1372 1373 1371 1370 1369 1368 1368 1366 1365 1363 1361 1359 1356
1448 1445 1443 1440 1438 1434 1430 1428 1425 1422 1417 1413 1409 1405 1403 1400 1397 1394 1390 1387 1384 1379 1376 1373 1371 1370 1368 1367 1366 1364 1363 1363 1362 1361 1361 1361 1360 1360 1358 1357 1355 1353 1351
1443 1440 1437 1434 1432 1429 1425 1423 1418 1415 1411 1407 1402 1398 1394 1392 1390 1387 1383 1380 1377 1373 1369 1366 1364 1361 1358 1357 1357 1356 1356 1354 1354 1352 1352 1352 1352 1352 1351 1350 1349 1347 1345
1437 1434 1431 1428 1425 1422 1420 1416 1413 1408 1404 1400 1397 1392 1388 1385 1383 1380 1376 1372 1368 1364 1359 1356 1354 1353 1352 1348 1347 1347 1347 1346 1345 1344 1344 1344 1344 1344 1343 1343 1342 1341 1340
1430 1427 1423 1421 1418 1413 1410 1406 1404 1401 1398 1393 1390 1386 1381 1376 1374 1370 1367 1363 1360 1357 1353 1349 1344 1342 1340 1339 1338 1337 1338 1338 1336 1336 1336 1336 1336 1336 1335 1335 1334 1334 1334
1422 1420 1417 1411 1409 1405 1401 1395 1393 1390 1389 1385 1381 1378 1374 1369 1365 1363 1359 1356 1352 1349 1345 1341 1337 1334 1330 1329 1327 1326 1326 1327 1327 1327 1328 1328 1327 1329 1328 1328 1327 1327 1327
1414 1410 1407 1402 1399 1395 1391 1386 1380 1379 1377 1374 1371 1369 1365 1361 1358 1354 1350 1346 1343 1340 1336 1332 1327 1325 1321 1318 1317 1316 1315 1315 1316 1316 1317 1318 1319 1321 1321 1320 1320 1321 1321
1405 1401 1398 1393 1390 1386 1381 1377 1373 1369 1364 1362 1361 1358 1355 1352 1348 1343 1339 1335 1331 1328 1326 1322 1318 1315 1312 1309 1306 1305 1304 1305 1304 1305 1306 1308 1311 1313 1313 1313 1314 1315 1315
1395 1390 1387 1383 1379 1376 1371 1367 1362 1358 1355 1351 1348 1347 1346 1341 1337 1333 1330 1326 1322 1319 1317 1313 1309 1306 1303 1300 1296 1295 1294 1294 1295 1296 1297 1299 1302 1305 1306 1307 1308 1309 1309
1384 1381 1377 1373 1369 1365 1361 1357 1353 1350 1346 1343 1340 1337 1334 1331 1325 1321 1318 1316 1313 1310 1306 1303 1299 1296 1293 1291 1288 1286 1285 1286 1286 1287 1289 1292 1295 1297 1298 1300 1302 1303 1303
1374 1370 1367 1363 1359 1356 1352 1348 1345 1342 1338 1335 1331 1328 1325 1323 1317 1313 1309 1306 1303 1300 1296 1293 1289 1286 1284 1281 1279 1277 1276 1277 1278 1279 1282 1285 1288 1290 1292 1295 1296 1297 1298
1366 1362 1358 1354 1350 1346 1343 1340 1336 1334 1330 1326 1321 1318 1315 1312 1309 1305 1301 1296 1292 1290 1286 1283 1280 1277 1276 1273 1270 1269 1268 1269 1270 1272 1275 1278 1281 1284 1287 1289 1291 1293 1294
1357 1353 1349 1345 1342 1338 1334 1332 1328 1325 1321 1317 1312 1308 1305 1302 1298 1295 1291 1286 1282 1278 1276 1274 1271 1268 1266 1264 1262 1261 1260 1261 1263 1266 1269 1272 1275 1279 1282 1285 1287 1289 1291
1349 1345 1341 1337 1334 1330 1326 1322 1319 1315 1313 1309 1305 1300 1296 1292 1288 1284 1280 1276 1272 1267 1264 1263 1262 1259 1258 1257 1255 1254 1254 1256 1257 1260 1263 1267 1270 1274 1277 1281 1283 1286 1287
1340 1337 1333 1329 1325 1321 1317 1313 1310 1307 1303 1300 1296 1291 1287 1283 1278 1274 1269 1265 1261 1258 1255 1254 1252 1251 1251 1250 1248 1248 1249 1251 1253 1256 1259 1263 1266 1270 1274 1278 1280 1283 1285
1329 1327 1324 1321 1316 1313 1309 1305 1302 1298 1294 1290 1287 1282 1277 1272 1268 1263 1258 1255 1252 1249 1247 1245 1245 1244 1244 1243 1242 1243 1244 1246 1250 1253 1256 1260 1263 1268 1272 1275 1278 1280 1282